Weather History for KMTP - April, 2013

Change the Weather History Date:

Thursday, April 4, 2013

  Actual Average (KHTO) Record (KHTO)
Temperature  
Mean Temperature 38 °F -  
Max Temperature 45 °F 51 °F 62 °F (1963)
Min Temperature 34 °F 36 °F 17 °F (1954)
Degree Days  
Heating Degree Days 26    
Moisture  
Dew Point 24 °F    
Average Humidity 57    
Maximum Humidity 77    
Minimum Humidity 41    
Precipitation  
Precipitation 0.00 in - - ()
Sea Level Pressure  
Sea Level Pressure 30.26 in    
Wind  
Wind Speed 13 mph (WSW)    
Max Wind Speed 20 mph    
Max Gust Speed 28 mph    
Averages and records for this station are not official NWS values.
T = Trace of Precipitation, MM = Missing Value Source: NWS Daily Summary

Daily Weather History Graph

Daily Weather History Graph

Search for Another Location

Airport or City:

Trip Planner

Search our weather history database for the weather conditions in past years. The results will help you decide how hot, cold, wet, or windy it might be!

Date:

Astronomy

Apr. 04, 2013 Rise Set
Actual Time 6:25 AM EDT 7:16 PM EDT
Civil Twilight 5:57 AM EDT 7:44 PM EDT
Nautical Twilight 5:24 AM EDT 8:17 PM EDT
Astronomical Twilight 4:50 AM EDT 8:51 PM EDT
Moon 2:53 AM EDT (4/4) 1:28 PM EDT (4/4)
Length of Visible Light 13h 46m
Length of Day
12h 50m
Waning Crescent, 34% of the Moon is Illuminated
Apr 4
Waning Crescent
Apr 10
New
Apr 18
First Quarter
Apr 25
Full
May 2
Last Quarter

Hourly Weather History & Observations

Time (EDT) Temp. Windchill Dew Point Humidity Pressure Visibility Wind Dir Wind Speed Gust Speed Precip Events Conditions
12:54 AM 36.0 °F 25.3 °F 15.1 °F 43% 30.25 in - NW 19.6 mph 27.6 mph N/A   Unknown
1:54 AM 36.0 °F 26.0 °F 17.1 °F 46% 30.23 in - NW 17.3 mph 25.3 mph N/A   Unknown
3:54 AM 34.0 °F 25.0 °F 17.1 °F 50% 30.26 in - NW 12.7 mph 19.6 mph N/A   Unknown
5:54 AM 34.0 °F 25.5 °F 18.0 °F 52% 30.31 in - WNW 11.5 mph - N/A   Unknown
7:54 AM 36.0 °F 29.0 °F 19.9 °F 52% 30.37 in - West 9.2 mph - N/A   Unknown
8:54 AM 37.9 °F 30.9 °F 19.9 °F 48% 30.36 in - West 10.4 mph 16.1 mph N/A   Unknown
9:54 AM 39.0 °F 32.3 °F 19.9 °F 46% 30.36 in - WNW 10.4 mph - N/A   Unknown
10:54 AM 39.9 °F 33.9 °F 19.9 °F 45% 30.34 in - West 9.2 mph - N/A   Unknown
11:54 AM 41.0 °F 35.2 °F 19.0 °F 41% 30.33 in - West 9.2 mph - N/A   Unknown
12:54 PM 43.0 °F 37.7 °F 21.9 °F 43% 30.32 in - WSW 9.2 mph 16.1 mph N/A   Unknown
2:54 PM 43.0 °F 37.2 °F 27.0 °F 53% 30.26 in - SSW 10.4 mph 18.4 mph N/A   Unknown
4:54 PM 41.0 °F 34.3 °F 26.1 °F 55% 30.21 in - SSW 11.5 mph 19.6 mph N/A   Unknown
5:54 PM 41.0 °F 35.2 °F 28.9 °F 62% 30.20 in - SSW 9.2 mph 16.1 mph N/A   Unknown
6:54 PM 39.9 °F 33.4 °F 30.0 °F 68% 30.20 in - SSW 10.4 mph 23.0 mph N/A   Unknown
7:54 PM 39.9 °F 32.5 °F 30.9 °F 70% 30.20 in - SW 12.7 mph 18.4 mph N/A   Unknown
8:54 PM 39.9 °F 33.9 °F 32.0 °F 73% 30.19 in - SSW 9.2 mph 20.7 mph N/A   Unknown
9:54 PM 39.9 °F 33.9 °F 32.0 °F 73% 30.17 in - SSW 9.2 mph 17.3 mph N/A   Unknown
10:54 PM 39.9 °F 33.9 °F 33.1 °F 77% 30.15 in - SSW 9.2 mph - N/A   Unknown
11:54 PM 39.9 °F 33.9 °F 33.1 °F 77% 30.14 in - SSW 9.2 mph 17.3 mph N/A   Unknown